Voltar ao catálogo

CZ-4 DEB

AtivoPO
NORAD 26127·DEBRIS·🇨🇳 China

Lançado Oct 14, 1999 de Taiyuan Satellite Launch Center

Loading…

Próximas Passagens (próximas 24 horas)

TLE

AtualizadoSource: Space-Track

Época: Sep 14, 2026, 00:31 UTC

1 26127U 99057P   26257.02193216  .00012561  00000-0  10957-2 0  9993
2 26127  98.4568  78.6633 0050857 160.4562 329.3135 14.96000562397998

Acompanhe CZ-4 DEB em tempo real com AllMySat

Download on the App Store